Regional Weather Roundup
Issued by NWS Green Bay, WI

Home | Current Version | Previous Version | Graphics & Text | Print | Product List | Glossary Off
Versions: 1 2 3 4 5 6 7 8 9 10 11 12 13 14 15 16 17 18 19 20 21 22 23 24 25 26 27 28 29 30 31 32 33 34 35 36 37 38 39 40 41 42 43 44 45 46 47 48 49 50

000
ASUS43 KGRB 262110
RWRGRB

NORTH-CENTRAL AND NORTHEAST WISCONSIN REGIONAL WEATHER ROUNDUP
NATIONAL WEATHER SERVICE GREEN BAY WI
400 PM CDT TUE AUG 26 2014

WIZ005-009-010>012-018-019-262200-
NORTH CENTRAL WISCONSIN

CITY           SKY/WX    TMP DP  RH WIND       PRES   REMARKS
IRONWOOD       NOT AVBL
MANITOWISH WTR SUNNY     66  49  54 NW9G16    30.11F
ARBOR VITAE    SUNNY     71  53  52 N6        30.11F
EAGLE RIVER    SUNNY     68  47  45 W8        30.11S
LAND O LAKES   SUNNY     69  49  48 N7        30.12S
RHINELANDER    SUNNY     68  50  52 NW6       30.12F
PHILLIPS       MOSUNNY   68  51  53 NW7       30.12S
ANTIGO         SUNNY     69  53  55 W10       30.11F
TOMAHAWK       SUNNY     69  50  51 NW9       30.13S
MERRILL        SUNNY     69  52  54 N5        30.11S
$$

WIZ013-073-262200-
NORTHEAST WISCONSIN

CITY           SKY/WX    TMP DP  RH WIND       PRES   REMARKS
IRON MOUNTAIN  SUNNY     71  50  47 VRB6      30.07R
MARINETTE      PTSUNNY   72  54  53 NW6       30.07R
OCONTO         PTSUNNY   73  56  56 NW7       30.07S
$$

WIZ017-030-035>037-045-262200-
CENTRAL WISCONSIN

CITY           SKY/WX    TMP DP  RH WIND       PRES   REMARKS
MEDFORD        SUNNY     67  52  57 W7        30.13F
WAUSAU         SUNNY     70  53  54 W9        30.11F
MOSINEE        SUNNY     70  55  60 NW6       30.13F
MARSHFIELD     SUNNY     71  54  54 NW9       30.13S
WISC RAPIDS    SUNNY     73  55  53 NW9       30.14S
STEVENS POINT  SUNNY     68  53  58 W6        30.13S
WAUPACA        SUNNY     76  55  48 W7        30.10S
SHAWANO        SUNNY     73  54  51 W6        30.10S
CLINTONVILLE   MOSUNNY   72  52  49 W5        30.09S
$$

WIZ038-039-048-051-262200-
FOX VALLEY

CITY           SKY/WX    TMP DP  RH WIND       PRES   REMARKS
NWS GREEN BAY  MOSUNNY   74  60  61 SW7       30.08F
APPLETON       PTSUNNY   72  55  56 VRB3      30.11S
OSHKOSH        SUNNY     74  60  61 W6        30.10S
FOND DU LAC    SUNNY     75  57  53 W6        30.11S
$$

WIZ022-050-052-262200-
EAST CENTRAL WISCONSIN

CITY           SKY/WX    TMP DP  RH WIND       PRES   REMARKS
STURGEON BAY   MOSUNNY   72  57  60 NW6       30.09R
MANITOWOC      SUNNY     74  58  57 NW8       30.08S
SHEBOYGAN      SUNNY     75  58  55 W8        30.09S
$$

LMZ563-521-522-541>543-262200-
LAKESHORE

STATION/POSITION TIME  TEMP    WIND        PRES    VSBY  WAVE
                       AIR SEA DIR/SP/G                  HT/PER
                 (UTC) (F)     (DEG/KT/KT) (MB)    (MI)  (FT/S)
SHEBOYGAN LKSHOR 2100   70 66  140/  9/ 10 1018.6S
KEWAUNEE LKSHORE 2100   74     300/  4/ 12 1017.4R
NORTHPORT PIER   2100   69     350/  4/  5 1018.3R
N MID LAKE BUOY  2100   66 66  290/  6/  6 1018.0R         1
S GREEN BAY BUOY 2100   70     VRB  8      1019.4R
SISTER BAY LKSHO 2000   78     280/  3/  4   N/A
CHAMBERS ISLAND  2100   71      20/  2/  5 1018.3S
MENOMINEE LKSHOR 2100   72     250/  2/  6 1018.8R
$$


USA.gov is the U.S. government's official web portal to all federal, state and local government web resources and services.